Weather History for Frederick, OK

Change the Weather History Date:

Monday, May 6, 2013

  Actual Average (KLTS) Record (KLTS)
Temperature  
Mean Temperature 60 °F -  
Max Temperature 75 °F 79 °F 102 °F (2014)
Min Temperature 46 °F 55 °F 41 °F (2013)
Degree Days  
Heating Degree Days 6    
Growing Degree Days 10 (Base 50)    
Moisture  
Dew Point 47 °F    
Average Humidity 62    
Maximum Humidity 90    
Minimum Humidity 37    
Precipitation  
Precipitation 0.00 in - - ()
Sea Level Pressure  
Sea Level Pressure 30.04 in    
Wind  
Wind Speed 4 mph (East)    
Max Wind Speed 10 mph    
Max Gust Speed -    
Visibility 10 miles    
Events      
Averages and records for this station are not official NWS values.
T = Trace of Precipitation, MM = Missing Value Source: NWS Daily Summary

Daily Weather History Graph

Daily Weather History Graph

Search for Another Location

Airport:

Trip Planner

Search our weather history database for the weather conditions in past years. The results will help you decide how hot, cold, wet, or windy it might be!

Date:

Astronomy

May. 06, 2013 Rise Set
Actual Time 6:41 AM CDT 8:24 PM CDT
Civil Twilight 6:13 AM CDT 8:51 PM CDT
Nautical Twilight 5:41 AM CDT 9:24 PM CDT
Astronomical Twilight 5:06 AM CDT 9:59 PM CDT
Moon 4:35 AM CDT (5/6) 5:32 PM CDT (5/6)
Length of Visible Light 14h 37m
Length of Day
13h 43m
Waning Crescent, 11% of the Moon is Illuminated
May 6
Waning Crescent
May 9
New
May 17
First Quarter
May 24
Full
May 31
Last Quarter

Hourly Weather History & Observations

Time (CDT) Temp. Dew Point Humidity Pressure Visibility Wind Dir Wind Speed Gust Speed Precip Events Conditions
12:53 AM 51.1 °F 45.0 °F 80% 30.08 in 10.0 mi ESE 3.5 mph - N/A   Clear
1:53 AM 51.1 °F 45.0 °F 80% 30.08 in 10.0 mi Calm Calm - N/A   Clear
2:53 AM 50.0 °F 45.0 °F 83% 30.07 in 10.0 mi East 5.8 mph - N/A   Clear
3:53 AM 48.0 °F 44.1 °F 86% 30.06 in 10.0 mi Calm Calm - N/A   Clear
4:53 AM 48.0 °F 45.0 °F 89% 30.06 in 10.0 mi NE 5.8 mph - N/A   Clear
5:53 AM 46.9 °F 44.1 °F 90% 30.06 in 10.0 mi North 3.5 mph - N/A   Clear
6:53 AM 48.0 °F 45.0 °F 89% 30.06 in 10.0 mi NNE 6.9 mph - N/A   Clear
7:53 AM 51.1 °F 46.9 °F 86% 30.09 in 10.0 mi Calm Calm - N/A   Clear
8:53 AM 57.9 °F 48.0 °F 70% 30.09 in 10.0 mi WSW 4.6 mph - N/A   Clear
9:53 AM 61.0 °F 48.0 °F 62% 30.10 in 10.0 mi Calm Calm - N/A   Clear
10:53 AM 66.0 °F 48.9 °F 54% 30.10 in 10.0 mi Variable 3.5 mph - N/A   Clear
11:53 AM 69.1 °F 48.0 °F 47% 30.08 in 10.0 mi ENE 5.8 mph - N/A   Clear
12:53 PM 70.0 °F 46.9 °F 44% 30.07 in 10.0 mi ENE 6.9 mph - N/A   Clear
1:53 PM 73.0 °F 46.9 °F 39% 30.04 in 10.0 mi NE 8.1 mph - N/A   Clear
2:53 PM 73.9 °F 46.9 °F 38% 30.02 in 10.0 mi SE 10.4 mph - N/A   Clear
3:53 PM 73.9 °F 46.9 °F 38% 30.00 in 10.0 mi Variable 3.5 mph - N/A   Clear
4:53 PM 73.9 °F 46.0 °F 37% 29.99 in 10.0 mi South 3.5 mph - N/A   Clear
5:53 PM 73.0 °F 45.0 °F 37% 29.98 in 10.0 mi SSW 3.5 mph - N/A   Clear
6:53 PM 73.0 °F 45.0 °F 37% 29.97 in 10.0 mi Calm Calm - N/A   Clear
7:53 PM 70.0 °F 52.0 °F 53% 29.96 in 10.0 mi East 3.5 mph - N/A   Clear
8:53 PM 66.9 °F 51.1 °F 57% 29.96 in 10.0 mi East 6.9 mph - N/A   Clear
9:53 PM 64.9 °F 48.9 °F 56% 29.97 in 10.0 mi East 8.1 mph - N/A   Clear
10:53 PM 62.1 °F 48.9 °F 62% 29.98 in 10.0 mi East 8.1 mph - N/A   Clear
11:53 PM 62.1 °F 48.9 °F 62% 29.99 in 10.0 mi East 8.1 mph - N/A   Clear